IRIDIUM 33 DEB, 34651

Orbit data source: Space-Track

IRIDIUM 33 DEB, 34651 is space debris in LEO originally from a launch on Sun, 14 Sep 1997 UTC launched from the Tyuratam Missile And Space Complex (TTMTR). The debris from Iridium 33, an American commercial communications satellite, has been tracked extensively since its accidental collision with the defunct Russian satellite Cosmos 2251 in 2009. This event, occurring at high speed in low Earth orbit (LEO), generated thousands of pieces of space debris, significantly increasing the risk of further collisions. The Iridium 33 debris cloud has impacted space traffic management and orbital debris mitigation strategies, making it a subject of ongoing study in space situational awareness.

Loading next visibility...
Identifier
34651, 1997-051KC
Orbit
LEO
Country
Flag of USUS
Related business
Manufacturer
Unknown
Mission
Spacecraft
Bus & Motor
Unknown
Mass
Unknown
Launch date (UTC)
1997-09-14 (29 years ago)
Launch vehicle
Unknown
Launch site
Tyuratam Missile And Space Complex (TTMTR)
Object type
Payload
Rocket body
Debris
Shape & HBR
Unknown shape, 0.1 m
Radar Cross Section
Small (<0.1 m²)

Expand to show TLE details & history
Last TLE update: 2 days ago

TLE from 2 days ago
0 IRIDIUM 33 DEB
1 34651U 97051KC  26262.28279752  .00002232  00000-0  79421-3 0  9996
2 34651  86.2831  20.7059 0130407  20.6476 339.9916 14.29252115898997
Epoch: 2026-09-19T06:47Z
TLE epoch observation values (Epoch: 2026-09-19T06:47:13.705Z)
Latitude
-0.00008°
Longitude
-79.29477°
Altitude
709.514 km
Speed
7.547 km/s
True Right ascension
01h 22m 49s
True Declination
0° 00' 00"
Sunlit
Object was in full shadow at epoch
Visualization orbit readout
Latitude
Unknown
Longitude
Unknown
Altitude
Unknown
Speed
Unknown
Apparent Right ascension
Unknown
Apparent Declination
Unknown
Sunlit
N/A
Visualization observer readout
Local Sidereal Time
12:55:28
Azimuth
Unknown
Elevation
Unknown
Doppler factor
Unknown
Orbital elements
Apogee altitude
884.698 km
Perigee altitude
697.712 km
Semi-major axis
7,169.342 km
Eccentricity
0.01304
Inclination
86.2831°
RAAN
20.7059°
Arg. of periapsis
20.6476°
True anomaly
339.47235°
Mean anomaly
339.9916°
Eccentric anomaly
339.73278°
Mean motion
3.5754 °/min
Orbital period
100.69 mins
BSTAR
0.00079421

Documentation

Showing up to 5 results
|